Temperature
11 11 11 11 11 11 11 11 11 11 10 10 10 10 10 10 10 10 10 10 10 10 10 10 10 10 10 10 10 10 9 9 9 9 8 8 9 9 9 9 9 9 9
10 11 11 11 11 11 11 11 10 10 10 10 10 10 10 10 10 9 9 9 9 9 9 10 10 10 10 10 10 9 9 9 9 8 8 8 8 8 8 8 8 9 9
10 11 11 11 11 11 11 10 10 10 10 10 10 9 9 9 9 9 9 9 9 9 9 9 9 9 9 9 9 9 9 9 8 8 8 8 8 7 8 8 8 8 8
10 10 10 10 10 10 10 10 10 10 10 10 9 9 9 9 9 9 9 9 9 9 8 9 9 9 9 9 9 9 9 9 8 8 8 8 8 8 7 7 8 8 8
10 10 10 10 10 10 10 10 10 9 9 9 9 9 9 9 9 8 8 8 8 8 8 8 8 8 8 8 8 8 8 8 8 8 8 8 8 8 8 7 7 7 7
9 10 10 10 10 10 9 9 9 9 9 9 9 9 9 8 8 8 8 8 8 8 8 8 8 8 8 8 8 8 8 8 8 7 7 7 7 8 8 8 7 7 7
9 9 9 9 9 9 9 9 9 9 9 9 9 8 8 8 8 8 8 8 7 7 7 7 8 7 7 7 7 7 7 7 7 7 7 7 7 7 7 7 7 7 7
8 9 9 9 9 9 9 9 8 8 8 8 8 8 8 8 8 8 7 7 7 7 7 7 7 7 7 7 7 7 7 7 7 7 7 7 7 7 7 7 7 6 6
8 8 8 9 9 9 9 8 8 8 8 8 8 8 8 8 7 7 7 7 7 7 7 7 7 7 6 6 6 6 6 6 6 6 6 6 6 6 6 6 6 6 6
7 8 8 8 8 8 8 8 8 8 8 8 8 8 7 7 7 7 7 6 6 6 6 6 6 6 6 6 6 6 6 6 6 6 6 6 6 6 6 6 6 5 5
7 7 8 8 8 8 8 8 8 8 7 7 7 7 7 7 6 6 6 6 6 6 6 6 6 6 6 5 5 5 5 5 5 5 5 5 5 5 5 5 5 5 5
6 6 7 7 7 7 7 7 7 7 7 7 7 7 7 6 6 6 6 6 6 6 6 6 5 5 5 5 5 5 5 5 5 5 5 5 5 5 5 5 5 5 5
5 6 6 6 7 7 7 7 7 7 6 6 6 6 6 6 6 6 5 5 5 5 5 5 5 5 5 5 5 5 5 5 5 5 5 5 5 5 5 5 4 4 4
5 5 5 6 6 6 6 6 6 6 6 6 6 6 6 5 5 5 5 5 5 5 5 5 5 5 5 5 5 5 5 5 5 5 5 4 4 4 4 4 4 4 4
4 4 5 5 5 6 6 6 6 6 6 6 5 5 5 5 5 5 5 5 5 5 5 5 4 4 4 4 4 4 4 4 4 4 4 4 4 4 4 4 4 4 3
3 4 4 5 5 5 5 5 5 5 5 5 5 5 5 5 5 5 5 5 4 4 4 4 4 4 4 4 4 4 4 4 4 4 4 3 3 3 3 3 3 3 3
3 3 4 4 5 5 5 5 5 5 5 4 5 5 4 4 4 4 4 4 4 4 4 4 4 4 4 4 4 4 4 3 3 3 3 3 3 3 3 3 2 2 2
3 3 4 4 4 4 4 4 4 4 4 4 4 4 4 4 4 4 4 4 4 4 4 3 3 3 3 3 3 3 3 3 3 3 3 3 3 2 2 2 2 2 2
2 3 3 3 4 4 3 3 4 3 3 3 4 3 3 3 3 3 3 3 3 3 3 3 3 3 3 3 3 2 2 2 2 2 2 2 2 2 2 2 2 1 1
2 2 3 3 3 3 3 3 3 3 3 3 3 3 3 3 3 3 3 3 3 3 2 2 2 2 2 2 2 2 2 2 2 2 2 2 2 1 1 1 1 1 1
1 2 2 2 2 2 2 2 2 2 2 2 2 2 2 2 2 2 2 2 2 2 2 2 1 1 2 2 1 1 1 1 1 1 1 1 1 1 1 1 0 0 0
1 1 1 1 1 1 1 2 2 2 2 2 2 2 2 2 2 2 2 2 1 1 1 1 1 1 1 1 1 1 1 1 1 1 1 1 0 0 0 -0 -0 -0 -0
-0 0 0 0 1 1 1 1 1 1 1 1 1 1 1 1 1 1 1 1 1 1 1 1 1 1 0 0 0 0 0 0 0 0 0 0 -0 -0 -0 -0 -0 -1 -1
-1 -1 -0 -0 -0 -0 0 0 0 0 0 0 0 0 0 0 0 0 0 0 0 -0 -0 0 0 0 -0 -0 -0 -0 -0 -0 -0 -0 -0 -0 -1 -1 -1 -1 -1 -1 -1
-2 -1 -1 -1 -1 -1 -1 -0 -0 -0 -0 -0 -0 -0 -0 -0 -0 -0 -0 -0 -0 -0 -0 -0 -0 -0 -0 -1 -1 -0 -0 -0 -0 -0 -1 -1 -1 -1 -1 -1 -1 -2 -2
-2 -2 -2 -2 -2 -2 -1 -1 -1 -1 -1 -1 -1 -1 -1 -1 -1 -1 -1 -1 -1 -1 -1 -1 -1 -1 -1 -1 -1 -1 -1 -1 -1 -1 -1 -1 -1 -2 -2 -2 -2 -2 -2
Wind_Speed
8 5 5 5 5 5 6 6 6 5 5 4 4 4 5 4 3 3 4 5 6 7 6 4 5 5 5 5 5 3 3 2 2 3 2 2 2 2 1 1 2 2 3
5 5 5 5 6 6 6 6 6 6 6 5 5 4 4 4 4 3 3 4 5 6 6 5 5 5 5 5 5 4 3 1 2 2 2 1 1 1 0 0 1 1 2
8 6 6 6 6 6 7 7 7 7 7 6 4 4 3 3 2 3 3 3 5 5 5 6 6 6 6 6 6 6 5 3 1 1 2 3 3 1 1 1 0 0 0
7 6 6 6 7 7 6 6 6 6 6 7 7 7 6 5 5 4 4 4 5 5 6 6 6 6 6 6 7 6 4 6 4 1 1 1 2 2 1 1 1 1 1
6 6 7 7 6 6 6 6 6 6 6 7 8 8 6 5 4 4 5 4 4 5 5 6 6 6 5 6 6 5 5 4 4 3 1 2 1 1 2 2 2 2 2
4 5 4 4 4 4 4 5 6 6 6 7 7 8 9 8 7 6 6 5 3 4 5 6 6 5 5 6 6 6 7 5 4 3 2 2 2 2 2 2 2 2 2
3 3 3 3 3 4 5 5 6 6 6 7 7 8 8 9 9 8 8 7 5 4 6 5 6 5 5 6 6 6 6 6 6 5 3 3 2 2 2 2 1 1 2
3 4 4 4 4 4 5 6 6 6 6 7 7 7 7 6 6 7 7 8 6 6 6 6 6 6 6 6 6 5 5 5 5 5 4 3 2 2 2 3 3 1 1
2 3 3 3 4 4 5 7 7 6 7 7 7 6 7 6 7 7 6 5 5 5 6 7 7 6 6 6 6 5 6 6 5 5 4 3 2 2 2 2 3 4 3
2 2 3 3 4 4 4 4 6 7 7 7 7 7 7 7 7 7 7 6 6 6 7 7 7 7 7 7 6 5 6 6 5 4 5 4 3 3 2 3 2 2 3
2 2 3 2 2 1 2 3 4 5 5 6 6 6 6 6 7 7 7 7 6 7 8 8 7 8 7 7 7 6 6 6 5 5 6 6 4 4 3 3 2 2 2
2 2 2 2 1 1 2 3 4 4 5 6 6 6 6 6 7 7 7 7 7 7 7 8 8 8 7 8 8 8 7 8 8 7 6 6 4 5 4 4 4 3 3
3 3 3 2 2 2 2 2 3 4 4 5 6 6 6 6 7 7 7 7 7 7 7 7 8 8 8 8 8 8 8 9 8 8 8 7 6 5 4 5 4 3 3
3 3 3 3 3 3 2 2 2 3 4 5 5 6 6 6 6 6 6 7 7 8 8 8 8 8 8 8 8 8 8 7 7 7 7 7 8 7 7 5 5 4 3
4 4 4 4 3 3 3 2 2 2 4 4 5 5 5 5 5 5 6 6 7 7 7 7 7 7 7 7 8 8 8 7 6 5 6 6 7 8 7 6 6 6 4
5 5 5 4 4 3 3 2 2 2 3 4 4 4 4 4 5 5 5 5 6 6 7 7 7 7 6 9 10 8 7 7 7 6 5 5 5 6 7 8 8 8 6
5 5 5 4 4 4 3 2 2 1 2 3 3 3 4 4 4 4 5 5 5 5 6 6 6 7 7 9 10 10 7 6 6 6 5 4 4 5 5 5 6 6 7
6 6 5 5 4 2 2 2 1 1 1 1 2 3 3 3 3 3 4 5 4 5 5 5 6 5 6 8 10 9 6 5 5 6 6 6 5 5 5 5 4 4 5
5 5 4 3 3 2 2 1 1 1 1 1 1 2 3 3 3 3 3 4 4 4 4 5 5 5 5 7 8 7 5 5 5 5 5 5 5 7 6 5 4 4 3
4 3 3 2 2 2 2 2 2 1 0 1 1 1 2 3 3 3 3 3 3 3 3 3 4 4 4 6 7 7 4 4 4 3 4 5 6 7 7 6 5 5 4
4 3 3 3 2 2 2 2 2 1 1 0 1 1 1 2 2 2 2 3 3 3 3 3 2 3 4 5 6 6 4 4 4 3 3 3 5 6 6 5 5 6 4
5 4 3 4 3 3 2 2 2 2 2 1 1 1 1 1 1 2 1 2 3 3 3 3 2 2 3 3 5 5 5 4 4 3 3 3 5 5 5 4 4 4 2
5 4 3 4 4 3 2 2 3 2 2 2 2 1 1 1 1 2 2 2 2 2 2 3 3 2 2 2 4 5 5 4 3 3 4 4 4 3 3 3 4 3 2
5 4 4 4 5 4 3 3 3 2 2 2 2 1 1 1 1 0 1 2 2 3 2 3 3 2 2 2 3 3 3 3 3 3 3 3 3 2 2 2 2 2 3
5 4 4 4 4 4 4 4 3 3 3 2 2 2 1 1 1 0 1 1 2 3 4 3 3 4 3 4 4 3 3 4 4 3 3 2 2 2 1 1 1 1 2
5 5 5 5 4 4 5 5 4 3 2 2 2 1 1 1 0 0 1 2 1 1 2 2 3 3 3 3 4 4 4 3 5 4 3 3 3 3 3 2 2 2 2
Wind_Direction
246 234 219 208 194 187 185 188 185 184 168 160 170 180 181 176 174 171 168 173 171 168 162 156 156 156 158 157 143 126 109 91 99 87 56 21 40 69 78 104 106 91 92
247 237 220 202 195 192 191 191 191 187 181 180 178 179 165 166 174 175 163 175 178 174 171 165 169 168 159 153 150 137 127 116 131 119 114 82 350 354 32 156 177 152 98
230 228 219 210 201 199 197 198 196 192 188 180 163 150 132 118 150 176 184 179 179 182 176 175 171 171 170 173 172 163 150 159 179 133 145 156 202 244 302 292 226 209 173
227 221 216 213 208 207 199 197 196 194 186 177 173 169 173 175 183 181 189 186 182 182 181 177 176 175 176 177 179 174 165 159 170 170 54 121 146 157 198 289 296 286 249
224 220 217 216 217 207 196 194 190 190 184 182 183 179 181 179 166 165 177 186 189 186 183 179 178 180 181 180 178 174 170 168 172 170 151 100 65 121 162 214 258 282 259
227 230 228 218 221 205 194 188 184 189 185 185 186 184 181 176 169 175 181 185 190 191 188 180 180 182 181 182 182 180 179 178 172 168 161 157 161 181 169 181 217 242 260
227 234 229 221 221 211 200 189 183 192 188 186 189 192 188 183 185 186 187 187 190 197 197 186 184 184 183 177 175 179 183 181 178 182 187 177 176 169 166 163 182 217 265
238 231 233 227 226 219 206 194 193 198 193 191 195 195 191 188 192 192 189 191 195 198 189 187 184 184 181 175 172 178 185 183 184 188 184 181 182 174 174 169 160 176 263
272 256 244 237 232 219 211 201 197 197 196 194 193 196 194 192 193 192 191 190 191 189 186 186 184 183 181 176 173 182 188 185 189 188 187 189 189 185 180 171 169 166 204
312 301 277 248 239 225 212 198 194 197 198 193 194 198 198 196 194 190 192 193 193 187 184 187 185 182 182 178 178 183 187 182 188 186 185 192 188 184 182 179 182 178 183
303 312 308 286 252 227 198 195 197 195 195 196 197 195 197 193 190 194 196 193 190 187 188 187 184 183 183 179 179 185 182 183 189 190 191 196 186 186 188 179 178 183 176
335 332 325 329 312 259 225 205 202 201 203 199 193 194 193 191 193 198 198 192 189 190 189 186 183 184 185 182 182 186 187 189 194 195 193 198 191 187 189 187 190 196 191
350 350 348 340 320 283 248 221 210 206 200 193 189 189 190 193 199 201 197 192 190 190 189 187 186 187 189 188 190 190 192 197 199 197 197 199 189 197 198 193 194 197 200
338 342 335 325 318 298 273 246 228 205 192 188 189 193 199 201 200 197 194 193 191 192 193 194 191 189 191 192 193 193 195 198 201 201 201 199 198 201 198 199 198 194 191
334 325 312 310 316 317 306 277 247 208 189 185 192 202 203 197 190 190 190 189 189 192 190 191 190 187 192 197 195 194 195 193 197 202 202 203 207 208 203 202 196 187 191
314 312 310 311 309 302 301 298 268 237 188 189 199 197 188 187 188 188 183 181 183 182 182 189 189 191 200 202 198 194 192 191 193 198 202 206 207 214 217 215 206 198 196
305 301 297 290 287 287 284 282 270 224 180 193 194 185 183 186 191 188 180 183 186 182 184 187 190 199 202 197 197 195 189 190 194 197 197 205 211 209 206 216 220 222 226
303 298 297 297 300 308 314 310 340 143 164 182 190 183 180 183 185 184 191 188 185 187 187 188 192 196 205 196 194 191 182 184 192 197 198 199 202 204 202 200 212 225 233
297 296 295 299 321 337 343 11 43 87 118 166 183 190 182 176 177 188 196 188 181 185 187 187 186 190 204 194 186 178 175 185 193 196 197 197 201 215 206 195 207 231 253
329 333 342 359 5 355 26 55 44 57 28 234 204 179 176 173 182 199 194 180 171 180 178 181 185 190 200 193 185 179 179 186 191 192 198 208 211 215 208 197 199 220 237
347 1 12 13 4 11 44 50 39 8 319 303 116 120 150 168 172 170 167 160 162 161 166 173 188 192 195 189 185 185 185 186 186 193 202 212 215 217 219 214 205 220 216
2 10 18 9 6 22 47 40 4 346 10 71 96 105 112 123 129 127 127 147 155 160 171 175 194 207 203 193 192 193 194 189 184 198 205 210 213 219 221 221 217 208 187
1 4 14 12 9 17 35 25 343 6 37 67 75 78 89 99 122 147 153 148 154 170 188 187 196 207 204 201 202 202 196 196 198 202 209 210 207 202 207 215 202 176 165
359 2 13 13 360 3 14 7 1 21 53 61 55 62 93 94 84 140 175 177 183 188 194 195 197 200 205 204 198 196 194 200 201 192 183 176 167 168 187 189 185 181 187
357 3 8 6 354 0 11 7 11 38 47 47 49 48 58 95 82 24 257 221 217 204 200 201 198 197 213 224 224 205 196 195 193 167 147 149 160 168 173 187 201 197 187
360 5 6 7 2 6 9 5 9 33 54 48 40 37 36 44 77 54 4 358 286 252 226 225 217 224 230 225 223 220 213 197 178 163 169 182 186 191 196 203 216 217 212
Height
1458 1460 1462 1464 1466 1467 1470 1472 1474 1476 1478 1480 1482 1484 1486 1489 1492 1494 1497 1499 1501 1504 1507 1508 1510 1512 1514 1515 1517 1519 1521 1523 1524 1526 1527 1528 1529 1530 1532 1533 1534 1535 1536
1453 1456 1458 1460 1462 1463 1466 1468 1470 1472 1474 1476 1478 1480 1482 1485 1488 1491 1493 1495 1498 1500 1503 1505 1506 1508 1510 1512 1514 1516 1518 1520 1521 1523 1524 1525 1527 1527 1529 1530 1531 1532 1533
1449 1451 1453 1455 1458 1460 1462 1464 1466 1468 1470 1472 1474 1476 1478 1481 1484 1486 1489 1491 1494 1496 1499 1501 1503 1505 1507 1508 1510 1512 1514 1516 1518 1520 1522 1523 1523 1524 1526 1526 1528 1529 1530
1445 1447 1449 1451 1453 1456 1458 1460 1462 1463 1465 1467 1469 1471 1472 1475 1478 1482 1485 1487 1490 1492 1495 1497 1499 1501 1503 1505 1507 1509 1511 1513 1514 1517 1518 1520 1520 1521 1522 1524 1525 1526 1527
1442 1443 1445 1447 1450 1452 1454 1455 1457 1459 1461 1463 1465 1466 1468 1471 1475 1478 1481 1483 1486 1488 1490 1492 1495 1497 1499 1501 1503 1505 1507 1509 1511 1512 1514 1516 1517 1518 1519 1519 1521 1522 1523
1439 1441 1442 1444 1446 1448 1450 1451 1453 1455 1457 1459 1461 1462 1464 1467 1470 1473 1476 1479 1481 1483 1485 1488 1490 1492 1495 1496 1498 1500 1503 1505 1508 1509 1511 1512 1514 1514 1516 1516 1517 1518 1520
1437 1438 1439 1440 1442 1444 1446 1447 1449 1451 1453 1455 1457 1459 1461 1463 1465 1468 1471 1473 1476 1478 1480 1483 1485 1488 1490 1492 1494 1496 1499 1501 1504 1506 1507 1509 1510 1512 1513 1514 1514 1515 1516
1434 1435 1436 1438 1439 1440 1442 1444 1445 1447 1450 1452 1453 1455 1457 1459 1461 1464 1466 1469 1471 1473 1476 1478 1481 1483 1486 1488 1490 1493 1495 1497 1500 1502 1504 1505 1507 1509 1510 1511 1512 1512 1512
1432 1433 1434 1435 1436 1437 1438 1440 1442 1444 1446 1448 1450 1451 1453 1455 1457 1459 1462 1464 1467 1469 1471 1474 1476 1479 1481 1484 1486 1489 1491 1493 1496 1498 1500 1502 1503 1505 1506 1507 1509 1510 1509
1430 1430 1431 1432 1433 1434 1435 1437 1438 1440 1442 1444 1446 1447 1449 1451 1453 1455 1457 1460 1462 1465 1467 1469 1471 1474 1477 1479 1482 1485 1487 1489 1491 1493 1496 1498 1499 1501 1502 1503 1505 1506 1506
1428 1428 1429 1430 1431 1432 1433 1434 1435 1437 1438 1440 1442 1443 1445 1447 1449 1451 1453 1455 1458 1460 1463 1465 1467 1469 1472 1475 1477 1480 1482 1484 1487 1489 1491 1493 1495 1496 1498 1499 1500 1502 1502
1427 1427 1427 1427 1428 1429 1430 1431 1432 1433 1434 1436 1438 1439 1441 1443 1445 1447 1449 1451 1454 1456 1458 1460 1462 1465 1468 1470 1473 1476 1478 1480 1482 1484 1487 1489 1490 1492 1493 1495 1496 1497 1498
1426 1425 1425 1425 1425 1426 1427 1428 1429 1430 1431 1433 1434 1435 1437 1438 1440 1442 1445 1447 1449 1452 1454 1456 1458 1460 1463 1466 1468 1471 1474 1476 1478 1480 1482 1484 1486 1487 1489 1490 1491 1492 1494
1424 1423 1423 1422 1423 1423 1424 1424 1425 1426 1428 1429 1430 1431 1432 1434 1436 1438 1441 1443 1445 1448 1450 1452 1454 1456 1459 1462 1464 1467 1469 1471 1473 1475 1477 1479 1481 1482 1484 1485 1486 1487 1489
1422 1421 1421 1420 1420 1420 1420 1421 1421 1423 1424 1425 1426 1427 1429 1430 1432 1434 1436 1439 1441 1443 1445 1447 1449 1452 1455 1457 1459 1462 1464 1466 1469 1470 1472 1474 1476 1478 1479 1480 1481 1482 1483
1420 1419 1419 1418 1417 1417 1417 1417 1418 1419 1420 1421 1422 1423 1425 1427 1428 1430 1432 1435 1437 1439 1441 1443 1445 1447 1450 1452 1455 1457 1459 1461 1463 1465 1467 1469 1471 1473 1474 1476 1477 1478 1479
1418 1417 1416 1416 1415 1415 1414 1414 1415 1416 1417 1418 1419 1420 1421 1423 1425 1427 1429 1431 1433 1435 1436 1438 1440 1442 1445 1448 1450 1453 1455 1457 1459 1461 1463 1464 1466 1468 1469 1471 1472 1472 1473
1416 1415 1414 1413 1413 1413 1412 1412 1412 1413 1414 1414 1415 1417 1418 1420 1422 1423 1425 1427 1428 1430 1432 1434 1436 1438 1440 1443 1446 1448 1450 1452 1454 1456 1458 1459 1461 1462 1464 1465 1466 1467 1468
1414 1413 1412 1411 1411 1410 1410 1410 1410 1410 1411 1411 1412 1414 1415 1416 1418 1419 1421 1423 1424 1426 1428 1430 1432 1434 1436 1439 1441 1443 1445 1447 1449 1451 1453 1454 1456 1458 1459 1460 1461 1462 1463
1412 1411 1410 1409 1409 1409 1408 1408 1408 1408 1408 1409 1410 1411 1413 1414 1415 1416 1418 1419 1420 1422 1424 1426 1428 1430 1432 1435 1437 1439 1441 1443 1445 1447 1448 1450 1451 1453 1454 1455 1456 1456 1457
1411 1409 1408 1407 1407 1407 1407 1407 1406 1406 1407 1408 1408 1409 1410 1411 1412 1413 1415 1416 1417 1419 1421 1423 1425 1427 1429 1431 1433 1435 1437 1439 1440 1442 1444 1445 1447 1448 1450 1451 1451 1452 1453
1409 1408 1407 1406 1406 1406 1406 1405 1405 1406 1406 1406 1406 1407 1408 1409 1410 1411 1412 1413 1414 1416 1418 1419 1421 1423 1425 1427 1429 1431 1433 1435 1437 1438 1440 1441 1443 1444 1445 1446 1447 1448 1448
1408 1407 1406 1405 1405 1405 1405 1404 1404 1404 1404 1405 1405 1405 1406 1407 1408 1409 1410 1410 1412 1413 1414 1416 1418 1419 1422 1424 1426 1428 1430 1432 1433 1435 1436 1438 1439 1440 1441 1442 1443 1443 1444
1408 1407 1406 1404 1404 1404 1404 1404 1403 1403 1403 1403 1403 1404 1404 1405 1406 1407 1408 1408 1409 1410 1411 1413 1414 1416 1418 1420 1422 1424 1426 1428 1430 1431 1433 1434 1435 1436 1437 1438 1438 1439 1439
1407 1406 1405 1404 1403 1403 1402 1402 1402 1402 1402 1402 1402 1402 1402 1403 1404 1405 1405 1406 1406 1407 1408 1410 1411 1412 1414 1416 1418 1420 1422 1423 1425 1427 1428 1429 1431 1431 1432 1433 1433 1434 1435
1407 1405 1404 1403 1402 1402 1401 1401 1401 1401 1401 1401 1400 1401 1401 1401 1402 1402 1403 1403 1404 1405 1406 1407 1408 1409 1411 1413 1415 1417 1418 1420 1421 1423 1423 1425 1426 1426 1427 1428 1429 1430 1430